User: anonymous   Login
Location: Allie Creek
(37.5926°N, 89.8526°W)
Time: 02:26:41
(UTC+00:00)
Language:

Meteor 2-20 - Orbit

View from above orbital plane
View from above orbital plane
View from above satellite
View from above satellite

Ground track
Ground track

The orbit data is extracted from the following two-line orbital elements,

1 20826U 90086A   24062.58781216  .00000030  00000-0  13651-4 0  9996
2 20826  82.5269 144.3801 0012851 206.9222 153.1273 13.84341981688560
Epoch (UTC): 02 March 2024 14:06:26
Eccentricity: 0.0012851
inclination: 82.5269°
perigee height: 939 km
apogee height: 958 km
right ascension of ascending node: 144.3801°
argument of perigee: 206.9222°
revolutions per day: 13.84341981
mean anomaly at epoch: 153.1273°
orbit number at epoch: 68856

The dashed part of the orbit path shows where the satellite is in the earth's shadow,  

DLR